Location: Hannover
(52.3723°N, 9.7339°E)
Time: 09:54:08
(UTC+01:00)

ISS - Visible Passes

Search period start: 17 February 2019 00:00
Search period end: 27 February 2019 00:00
Orbit: 403 x 411 km, 51.6° (Epoch: 17 February)

Date Brightness Start Highest point End Pass type
(mag) Time Alt. Az. Time Alt. Az. Time Alt. Az.
23 Feb -0.8 06:35:21 10° SSE 06:36:51 13° SE 06:38:22 10° ESE visible
25 Feb -1.5 06:27:24 10° SSW 06:30:02 22° SSE 06:32:40 10° E visible
26 Feb -1.1 05:36:44 10° S 05:38:43 15° SE 05:40:43 10° ESE visible
